Weather History for North Adams, MA

Change the Weather History Date:

Sunday, January 20, 2013

  Actual Average Record
Temperature  
Mean Temperature 34 °F -  
Max Temperature 46 °F 25 °F 55 °F (2006)
Min Temperature 19 °F 9 °F 0 °F (2000)
Degree Days  
Heating Degree Days 32    
Moisture  
Dew Point 17 °F    
Average Humidity 56    
Maximum Humidity 85    
Minimum Humidity 38    
Precipitation  
Precipitation 0.03 in - - ()
Sea Level Pressure  
Sea Level Pressure 29.79 in    
Wind  
Wind Speed 8 mph (WNW)    
Max Wind Speed 21 mph    
Max Gust Speed 39 mph    
Visibility 8 miles    
Events Rain , Snow    
Averages and records for this station are not official NWS values.
T = Trace of Precipitation, MM = Missing Value Source: NWS Daily Summary

Daily Weather History Graph

Daily Weather History Graph

Search for Another Location

Airport:

Trip Planner

Search our weather history database for the weather conditions in past years. The results will help you decide how hot, cold, wet, or windy it might be!

Date:

Astronomy

Jan. 20, 2013 Rise Set
Actual Time 7:17 AM EST 4:50 PM EST
Civil Twilight 6:46 AM EST 5:21 PM EST
Nautical Twilight 6:11 AM EST 5:56 PM EST
Astronomical Twilight 5:38 AM EST 6:29 PM EST
Moon 11:50 AM EST (1/20) 1:46 AM EST (1/20)
Length of Visible Light 10h 35m
Length of Day
9h 33m
Waxing Gibbous, 66% of the Moon is Illuminated
Jan 20
Waxing Gibbous
Jan 26
Full
Feb 3
Last Quarter
Feb 10
New
Feb 17
First Quarter

Hourly Weather History & Observations

Time (EST) Temp. Windchill Dew Point Humidity Pressure Visibility Wind Dir Wind Speed Gust Speed Precip Events Conditions
12:52 AM 42.1 °F 40.2 °F 21.0 °F 43% 29.77 in 10.0 mi NNE 3.5 mph - N/A   Overcast
1:52 AM 42.1 °F - 21.0 °F 43% 29.75 in 10.0 mi Calm Calm - N/A   Mostly Cloudy
2:52 AM 39.0 °F 36.8 °F 21.9 °F 50% 29.74 in 10.0 mi East 3.5 mph - N/A   Partly Cloudy
3:52 AM 39.0 °F 36.8 °F 21.9 °F 50% 29.70 in 10.0 mi Variable 3.5 mph - N/A   Clear
4:52 AM 36.0 °F 33.3 °F 21.9 °F 57% 29.67 in 10.0 mi East 3.5 mph - N/A   Clear
5:52 AM 34.0 °F - 21.9 °F 61% 29.64 in 10.0 mi Calm Calm - N/A   Clear
6:52 AM 35.1 °F 29.3 °F 21.9 °F 59% 29.61 in 10.0 mi Variable 6.9 mph - N/A   Clear
7:52 AM 39.9 °F 35.1 °F 21.9 °F 49% 29.61 in 10.0 mi West 6.9 mph - N/A   Partly Cloudy
8:52 AM 43.0 °F 37.7 °F 21.9 °F 43% 29.59 in 10.0 mi West 9.2 mph 17.3 mph N/A   Scattered Clouds
9:52 AM 46.0 °F 41.0 °F 21.9 °F 39% 29.57 in 10.0 mi West 10.4 mph 20.7 mph N/A   Overcast
10:52 AM 41.0 °F 33.1 °F 26.1 °F 55% 29.63 in 10.0 mi WNW 15.0 mph 27.6 mph 0.00 in Rain Light Rain
11:10 AM 37.4 °F 26.9 °F 30.2 °F 75% 29.63 in 5.0 mi West 20.7 mph 27.6 mph 0.00 in Rain Light Rain
11:52 AM 35.1 °F 28.6 °F 30.9 °F 85% 29.64 in 6.0 mi West 8.1 mph 18.4 mph 0.03 in Snow Light Snow
12:07 PM 37.4 °F 29.3 °F 28.4 °F 70% 29.62 in 10.0 mi West 12.7 mph - 0.00 in   Overcast
12:52 PM 41.0 °F 33.1 °F 26.1 °F 55% 29.62 in 10.0 mi West 15.0 mph 21.9 mph 0.00 in   Partly Cloudy
1:52 PM 39.0 °F 31.0 °F 15.1 °F 38% 29.66 in 10.0 mi West 13.8 mph 29.9 mph N/A   Clear
2:52 PM 36.0 °F 27.1 °F 14.0 °F 41% 29.73 in 10.0 mi WNW 13.8 mph 35.7 mph N/A   Clear
3:52 PM 32.0 °F 21.6 °F 12.9 °F 45% 29.79 in 10.0 mi WNW 15.0 mph 39.1 mph N/A   Overcast
4:52 PM 30.0 °F 17.9 °F 12.0 °F 47% 29.85 in 10.0 mi West 18.4 mph 31.1 mph N/A   Overcast
5:52 PM 28.0 °F 15.7 °F 9.0 °F 45% 29.87 in 10.0 mi West 17.3 mph 24.2 mph N/A   Partly Cloudy
6:52 PM 27.0 °F 13.5 °F 6.1 °F 41% 29.89 in 10.0 mi West 19.6 mph 29.9 mph N/A   Overcast
7:52 PM 27.0 °F 15.6 °F 7.0 °F 43% 29.91 in 10.0 mi West 13.8 mph 24.2 mph N/A   Overcast
8:52 PM 26.1 °F 14.0 °F 7.0 °F 44% 29.92 in 10.0 mi West 15.0 mph 25.3 mph N/A   Mostly Cloudy
9:52 PM 24.1 °F 9.4 °F 12.9 °F 62% 29.95 in 1.8 mi West 20.7 mph 29.9 mph 0.00 in Snow Light Snow
9:59 PM 24.8 °F 16.9 °F 12.2 °F 59% 29.93 in 3.0 mi NW 6.9 mph 28.8 mph 0.00 in Snow Light Snow
10:20 PM 21.2 °F 11.7 °F 14.0 °F 74% 29.94 in 2.0 mi West 8.1 mph - 0.00 in Snow Light Snow
10:26 PM 21.2 °F 10.9 °F 14.0 °F 74% 29.95 in 1.2 mi WNW 9.2 mph 16.1 mph 0.00 in Snow Light Snow
10:32 PM 21.2 °F 10.9 °F 15.8 °F 80% 29.95 in 0.8 mi WNW 9.2 mph 21.9 mph 0.00 in Snow Light Snow
10:42 PM 21.2 °F 11.7 °F 12.2 °F 68% 29.95 in 1.5 mi WNW 8.1 mph 21.9 mph 0.00 in Snow Light Snow
10:44 PM 21.2 °F 7.8 °F 12.2 °F 68% 29.96 in 2.0 mi West 15.0 mph 20.7 mph 0.00 in Snow Light Snow
10:52 PM 21.0 °F 9.9 °F 10.9 °F 65% 29.99 in 8.0 mi West 10.4 mph 20.7 mph 0.00 in   Overcast
11:09 PM 21.2 °F 10.9 °F 8.6 °F 58% 29.96 in 10.0 mi WNW 9.2 mph 27.6 mph N/A   Mostly Cloudy
11:52 PM 19.9 °F 7.9 °F 6.1 °F 55% 29.99 in 10.0 mi West 11.5 mph 21.9 mph N/A   Mostly Cloudy